Weather History for New York JFK, NY

Change the Weather History Date:

Saturday, June 29, 2013

  Actual Average Record
Temperature  
Mean Temperature 75 °F 74 °F  
Max Temperature 80 °F 82 °F 99 °F (1959)
Min Temperature 69 °F 67 °F 55 °F (1995)
Degree Days  
Heating Degree Days 0 0  
Month to date heating degree days 10 20  
Since 1 June heating degree days 10 20  
Since 1 July heating degree days 4706 4838  
Cooling Degree Days 10 9  
Month to date cooling degree days 170 172  
Year to date cooling degree days 196 207  
Since 1 June cooling degree days 170 172  
Growing Degree Days 24 (Base 50)    
Moisture  
Dew Point 68 °F    
Average Humidity 79    
Maximum Humidity 90    
Minimum Humidity 67    
Precipitation  
Precipitation T in 0.11 in 2.75 in (1976)
Month to date precipitation 7.93 3.75  
Year to date precipitation 21.18 21.09  
Snow  
Snow 0.00 in 0.00 in - ()
Month to date snowfall 0.0 0.0  
Since 1 July snowfall 17.6 23.8  
Snow Depth 0.00 in    
Sea Level Pressure  
Sea Level Pressure 29.61 in    
Wind  
Wind Speed 12 mph (SSW)    
Max Wind Speed 25 mph    
Max Gust Speed 32 mph    
Visibility 10 miles    
Events      
T = Trace of Precipitation, MM = Missing Value Source: NWS Daily Summary

Daily Weather History Graph

Daily Weather History Graph

Search for Another Location

Airport:

Trip Planner

Search our weather history database for the weather conditions in past years. The results will help you decide how hot, cold, wet, or windy it might be!

Date:

Astronomy

Jun. 29, 2013 Rise Set
Actual Time 5:27 AM EDT 8:30 PM EDT
Civil Twilight 4:53 AM EDT 9:03 PM EDT
Nautical Twilight 4:11 AM EDT 9:45 PM EDT
Astronomical Twilight 3:21 AM EDT 10:35 PM EDT
Moon No Moon Rise 12:38 PM EDT (6/29)
Length of Visible Light 16h 09m
Length of Day
15h 03m
Waning Gibbous, 56% of the Moon is Illuminated
Jun 29
Waning Gibbous
Jun 30
Last Quarter
Jul 8
New
Jul 15
First Quarter
Jul 22
Full

Hourly Weather History & Observations

Time (EDT) Temp. Dew Point Humidity Pressure Visibility Wind Dir Wind Speed Gust Speed Precip Events Conditions
12:51 AM 72.0 °F 66.9 °F 84% 29.53 in 10.0 mi South 6.9 mph - N/A   Mostly Cloudy
1:51 AM 72.0 °F 66.9 °F 84% 29.52 in 10.0 mi South 5.8 mph - N/A   Scattered Clouds
2:51 AM 70.0 °F 66.0 °F 87% 29.51 in 10.0 mi South 4.6 mph - N/A   Scattered Clouds
3:51 AM 70.0 °F 66.9 °F 90% 29.52 in 10.0 mi South 8.1 mph - N/A   Scattered Clouds
4:51 AM 70.0 °F 66.9 °F 90% 29.54 in 10.0 mi South 5.8 mph - N/A   Scattered Clouds
5:51 AM 71.1 °F 66.9 °F 87% 29.57 in 10.0 mi SSW 10.4 mph - N/A   Mostly Cloudy
6:25 AM 71.6 °F 66.2 °F 83% 29.58 in 10.0 mi SSW 10.4 mph - N/A   Mostly Cloudy
6:51 AM 72.0 °F 66.9 °F 84% 29.58 in 10.0 mi SSW 11.5 mph - N/A   Overcast
7:51 AM 72.0 °F 66.9 °F 84% 29.59 in 10.0 mi SSW 11.5 mph - 0.00 in   Overcast
8:51 AM 72.0 °F 66.9 °F 84% 29.61 in 10.0 mi SSW 10.4 mph - N/A   Overcast
9:51 AM 75.0 °F 68.0 °F 79% 29.62 in 9.0 mi WSW 10.4 mph - N/A   Mostly Cloudy
10:11 AM 75.2 °F 68.0 °F 78% 29.61 in 10.0 mi SW 10.4 mph - N/A   Mostly Cloudy
10:51 AM 78.1 °F 66.9 °F 68% 29.62 in 10.0 mi SW 12.7 mph - N/A   Mostly Cloudy
11:51 AM 78.1 °F 66.9 °F 68% 29.62 in 10.0 mi SSW 11.5 mph - N/A   Scattered Clouds
12:51 PM 78.1 °F 68.0 °F 71% 29.62 in 10.0 mi South 11.5 mph - N/A   Scattered Clouds
1:51 PM 79.0 °F 69.1 °F 72% 29.63 in 10.0 mi South 12.7 mph - N/A   Scattered Clouds
2:51 PM 79.0 °F 69.1 °F 72% 29.63 in 10.0 mi South 16.1 mph - N/A   Scattered Clouds
3:51 PM 78.1 °F 69.1 °F 74% 29.64 in 10.0 mi South 16.1 mph - N/A   Scattered Clouds
4:51 PM 78.1 °F 69.1 °F 74% 29.64 in 10.0 mi South 18.4 mph 27.6 mph N/A   Scattered Clouds
5:51 PM 75.9 °F 69.1 °F 79% 29.64 in 10.0 mi South 20.7 mph 26.5 mph N/A   Scattered Clouds
6:51 PM 75.0 °F 69.1 °F 82% 29.65 in 10.0 mi South 25.3 mph 31.1 mph N/A   Scattered Clouds
7:51 PM 73.0 °F 69.1 °F 87% 29.66 in 10.0 mi South 17.3 mph 21.9 mph N/A   Mostly Cloudy
8:51 PM 73.0 °F 69.1 °F 87% 29.68 in 8.0 mi South 11.5 mph - N/A   Mostly Cloudy
9:51 PM 73.0 °F 69.1 °F 87% 29.70 in 10.0 mi South 10.4 mph - N/A   Scattered Clouds
10:51 PM 75.0 °F 70.0 °F 84% 29.70 in 10.0 mi SSW 10.4 mph - N/A   Scattered Clouds
11:51 PM 71.1 °F 68.0 °F 90% 29.72 in 9.0 mi South 5.8 mph - N/A   Scattered Clouds